Weather History for KRZN - February, 2014

Change the Weather History Date:

Sunday, February 16, 2014

  Actual Average Record
Temperature  
Mean Temperature 3 °F -  
Max Temperature 21 °F - - ()
Min Temperature -15 °F - - ()
Degree Days  
Heating Degree Days 62    
Moisture  
Dew Point 1 °F    
Average Humidity 69    
Maximum Humidity 89    
Minimum Humidity 48    
Precipitation  
Precipitation 0.00 in - - ()
Sea Level Pressure  
Sea Level Pressure 30.14 in    
Wind  
Wind Speed 5 mph (ESE)    
Max Wind Speed 15 mph    
Max Gust Speed 18 mph    
Visibility 10 miles    
Events Snow    
T = Trace of Precipitation, MM = Missing Value Source: NWS Daily Summary

Daily Weather History Graph

Daily Weather History Graph

Search for Another Location

Airport or City:

Trip Planner

Search our weather history database for the weather conditions in past years. The results will help you decide how hot, cold, wet, or windy it might be!

Date:

Astronomy

Feb. 16, 2014 Rise Set
Actual Time 7:10 AM CST 5:37 PM CST
Civil Twilight 6:39 AM CST 6:08 PM CST
Nautical Twilight 6:04 AM CST 6:43 PM CST
Astronomical Twilight 5:30 AM CST 7:17 PM CST
Moon 7:43 PM CST (2/16) 7:32 AM CST (2/16)
Length of Visible Light 11h 28m
Length of Day
10h 27m
Full, 97% of the Moon is Illuminated
Feb 16
Full
Feb 22
Last Quarter
Mar 1
New
Mar 8
First Quarter
Mar 16
Full

Hourly Weather History & Observations

Time (CST) Temp. Windchill Dew Point Humidity Pressure Visibility Wind Dir Wind Speed Gust Speed Precip Events Conditions
12:15 AM 10.4 °F 0.8 °F 6.8 °F 85% 30.06 in 10.0 mi NNW 5.8 mph - N/A   Clear
12:35 AM 9.3 °F -2.8 °F 5.9 °F 86% 30.07 in 10.0 mi North 8.1 mph - N/A   Clear
12:55 AM 8.4 °F -3.9 °F 5.2 °F 87% 30.08 in 10.0 mi North 8.1 mph - N/A   Clear
1:15 AM 7.0 °F 0.1 °F 3.9 °F 87% 30.08 in 10.0 mi NNE 3.5 mph - N/A   Clear
1:35 AM 5.9 °F -3.0 °F 3.2 °F 89% 30.07 in 10.0 mi NNE 4.6 mph - N/A   Clear
1:55 AM 5.0 °F -4.1 °F 2.3 °F 89% 30.07 in 10.0 mi NNE 4.6 mph - N/A   Clear
2:15 AM 5.7 °F -6.1 °F 2.8 °F 88% 30.06 in 10.0 mi NE 6.9 mph - N/A   Clear
2:35 AM 6.3 °F -5.4 °F 3.0 °F 87% 30.08 in 10.0 mi NE 6.9 mph - N/A   Clear
2:55 AM 5.9 °F -4.5 °F 2.3 °F 85% 30.08 in 10.0 mi NE 5.8 mph - N/A   Clear
3:15 AM 3.2 °F -6.2 °F -0.6 °F 84% 30.09 in 10.0 mi NNE 4.6 mph - N/A   Clear
3:35 AM 1.8 °F - -1.7 °F 86% 30.10 in 10.0 mi Calm Calm - N/A   Clear
3:55 AM -0.4 °F - -4.0 °F 85% 30.11 in 10.0 mi Calm Calm - N/A   Clear
4:15 AM -6.0 °F - -10.8 °F 79% 30.13 in 10.0 mi Calm Calm - N/A   Clear
4:35 AM -5.4 °F - -9.0 °F 84% 30.14 in 10.0 mi Calm Calm - N/A   Clear
4:55 AM -5.1 °F - -9.0 °F 83% 30.16 in 10.0 mi Calm Calm - N/A   Clear
5:15 AM -6.3 °F - -10.7 °F 82% 30.16 in 10.0 mi Calm Calm - N/A   Clear
5:35 AM -8.7 °F - -13.7 °F 79% 30.18 in 7.0 mi Calm Calm - N/A Snow Light Snow
5:55 AM -8.7 °F - -13.2 °F 81% 30.18 in 10.0 mi Calm Calm - N/A   Scattered Clouds
6:15 AM -14.4 °F - -20.2 °F 75% 30.18 in 10.0 mi Calm Calm - N/A   Clear
6:35 AM -14.1 °F - -19.3 °F 77% 30.19 in 10.0 mi Calm Calm - N/A   Clear
6:55 AM -11.7 °F - -16.8 °F 78% 30.18 in 10.0 mi Calm Calm - N/A   Clear
7:15 AM -12.8 °F - -17.7 °F 79% 30.18 in 10.0 mi Calm Calm - N/A   Clear
7:35 AM -15.9 °F - -21.5 °F 76% 30.19 in 10.0 mi Calm Calm - N/A   Clear
7:55 AM -12.5 °F - -17.1 °F 80% 30.20 in 10.0 mi Calm Calm - N/A   Clear
8:15 AM -6.0 °F - -9.4 °F 85% 30.21 in 10.0 mi Calm Calm - N/A   Clear
8:35 AM -1.8 °F -9.9 °F -5.3 °F 85% 30.23 in 10.0 mi NE 3.5 mph - N/A   Clear
8:55 AM 6.1 °F -5.6 °F 3.4 °F 89% 30.22 in 10.0 mi ENE 6.9 mph - N/A   Clear
9:15 AM 7.0 °F -3.3 °F 4.1 °F 88% 30.23 in 10.0 mi ENE 5.8 mph - N/A   Clear
9:35 AM 8.6 °F -2.6 °F 5.7 °F 88% 30.24 in 10.0 mi East 6.9 mph - N/A   Clear
9:55 AM 9.3 °F -1.7 °F 5.7 °F 85% 30.23 in 10.0 mi East 6.9 mph - N/A   Clear
10:15 AM 10.6 °F -0.2 °F 3.9 °F 75% 30.23 in 10.0 mi East 6.9 mph - N/A   Clear
10:35 AM 12.2 °F 4.3 °F 3.2 °F 67% 30.23 in 10.0 mi East 4.6 mph - N/A   Clear
10:55 AM 12.9 °F 5.2 °F 3.4 °F 66% 30.23 in 10.0 mi ESE 4.6 mph - N/A   Clear
11:15 AM 13.8 °F 6.2 °F 3.7 °F 64% 30.23 in 10.0 mi ENE 4.6 mph - N/A   Clear
11:35 AM 14.9 °F 7.5 °F 3.9 °F 62% 30.22 in 10.0 mi East 4.6 mph - N/A   Clear
11:55 AM 15.4 °F 6.8 °F 3.9 °F 60% 30.22 in 10.0 mi ESE 5.8 mph - N/A   Clear
12:15 PM 15.8 °F 8.6 °F 3.9 °F 60% 30.22 in 10.0 mi SE 4.6 mph - N/A   Clear
12:35 PM 15.8 °F 10.2 °F 3.9 °F 60% 30.20 in 10.0 mi South 3.5 mph - N/A   Clear
12:55 PM 17.2 °F 10.2 °F 4.3 °F 57% 30.19 in 10.0 mi South 4.6 mph - N/A   Clear
1:15 PM 18.1 °F 8.9 °F 4.6 °F 56% 30.18 in 10.0 mi SSE 6.9 mph - N/A   Clear
1:35 PM 18.9 °F 10.8 °F 4.6 °F 54% 30.17 in 10.0 mi SSE 5.8 mph - N/A   Clear
1:55 PM 18.5 °F 10.4 °F 5.0 °F 56% 30.16 in 10.0 mi South 5.8 mph - N/A   Clear
2:15 PM 20.3 °F - 4.6 °F 51% 30.15 in 10.0 mi Calm Calm - N/A   Clear
2:35 PM 20.1 °F 12.3 °F 4.6 °F 51% 30.16 in 10.0 mi South 5.8 mph - N/A   Clear
2:55 PM 21.0 °F 11.4 °F 4.6 °F 49% 30.14 in 10.0 mi SE 8.1 mph - N/A   Clear
3:15 PM 21.2 °F 13.6 °F 4.3 °F 48% 30.13 in 10.0 mi SE 5.8 mph - N/A   Clear
3:35 PM 21.4 °F 11.1 °F 4.3 °F 48% 30.13 in 10.0 mi SSE 9.2 mph - N/A   Clear
3:55 PM 20.8 °F 9.0 °F 3.7 °F 48% 30.13 in 10.0 mi SE 11.5 mph - N/A   Clear
4:15 PM 19.8 °F 10.8 °F 4.1 °F 51% 30.11 in 10.0 mi SE 6.9 mph - N/A   Clear
4:35 PM 19.2 °F 8.4 °F 4.8 °F 54% 30.12 in 10.0 mi SSE 9.2 mph - N/A   Clear
4:55 PM 18.5 °F 8.4 °F 5.0 °F 56% 30.12 in 10.0 mi SSE 8.1 mph - N/A   Clear
5:15 PM 18.1 °F 8.9 °F 5.5 °F 58% 30.13 in 10.0 mi SSE 6.9 mph - N/A   Clear
5:35 PM 18.1 °F 10.0 °F 5.0 °F 57% 30.12 in 10.0 mi SE 5.8 mph - N/A   Clear
5:55 PM 17.8 °F 9.6 °F 5.4 °F 58% 30.12 in 10.0 mi SE 5.8 mph - N/A   Clear
6:15 PM 17.6 °F 10.7 °F 5.7 °F 60% 30.13 in 10.0 mi SSE 4.6 mph - N/A   Clear
6:35 PM 17.6 °F 10.7 °F 5.7 °F 60% 30.13 in 10.0 mi SSE 4.6 mph - N/A   Clear
6:55 PM 17.6 °F 10.7 °F 5.9 °F 60% 30.13 in 10.0 mi SE 4.6 mph - N/A   Clear
7:35 PM 17.6 °F 9.3 °F 6.1 °F 61% 30.11 in 10.0 mi SE 5.8 mph - N/A   Clear
7:55 PM 17.6 °F 8.2 °F 5.9 °F 60% 30.10 in 10.0 mi SE 6.9 mph - N/A   Clear
8:15 PM 18.1 °F 7.1 °F 6.4 °F 60% 30.10 in 10.0 mi SSE 9.2 mph - N/A   Scattered Clouds
8:35 PM 18.1 °F 8.9 °F 6.3 °F 60% 30.09 in 10.0 mi SE 6.9 mph - N/A   Scattered Clouds
8:55 PM 18.3 °F 9.1 °F 6.4 °F 60% 30.08 in 10.0 mi SE 6.9 mph - N/A   Scattered Clouds
9:15 PM 18.5 °F 8.4 °F 6.8 °F 60% 30.07 in 10.0 mi SE 8.1 mph - N/A   Scattered Clouds
9:35 PM 18.5 °F 8.4 °F 7.3 °F 62% 30.07 in 10.0 mi SSE 8.1 mph - N/A   Scattered Clouds
9:55 PM 18.5 °F 8.4 °F 7.7 °F 63% 30.06 in 10.0 mi SSE 8.1 mph - N/A   Mostly Cloudy
10:15 PM 19.0 °F 9.0 °F 8.4 °F 63% 30.05 in 10.0 mi SSE 8.1 mph - N/A   Mostly Cloudy
10:35 PM 19.2 °F 10.2 °F 8.6 °F 63% 30.05 in 10.0 mi SSE 6.9 mph - N/A   Mostly Cloudy
10:55 PM 19.4 °F 9.5 °F 8.6 °F 63% 30.04 in 10.0 mi SSE 8.1 mph - N/A   Overcast
11:15 PM 19.8 °F 9.1 °F 9.3 °F 64% 30.04 in 10.0 mi SSE 9.2 mph - N/A   Mostly Cloudy
11:35 PM 20.1 °F 7.5 °F 9.5 °F 63% 30.04 in 10.0 mi SSE 12.7 mph 18.4 mph N/A   Overcast
11:55 PM 19.9 °F 6.2 °F 10.0 °F 65% 30.02 in 10.0 mi SSE 15.0 mph - N/A   Overcast